ARIANE 44L R/B, 26696

Orbit data source: Space-Track

ARIANE 44L R/B, 26696 is space debris in HEO originally from a launch on Wed, 07 Feb 2001 UTC launched from the French Guiana (FRGUI). Debris objects in space refer to the collection of defunct objects orbiting the Earth. Examples of debris include non-operational satellites, rocket bodies, and fragments generated from explosions, collisions, or faulty payload assembly.

Loading next visibility...
Identifier
26696, 2001-005C
Orbit
HEO
Country
Flag of FRFR
Related business
Manufacturer
EADS/LV
Mission
Spacecraft
Bus & Motor
ARIANE H10-3/S, HM-7B
Mass
2,260 kg wet, 2,080 kg dry
Launch date (UTC)
2001-02-07 (25 years ago)
Launch vehicle
Unknown
Launch site
French Guiana (FRGUI)
Object type
Payload
Rocket body
Debris
Shape & HBR
Cyl, 6.0 m
Radar Cross Section
27.363 m², Large (>1 m²)

Expand to show TLE details & history
Last TLE update: 18 hours ago

TLE from 18 hours ago
0 ARIANE 44L R/B
1 26696U 01005C   26169.36968708  .00002287  00000-0  11372-2 0  9991
2 26696   7.1880  52.0760 6896310 184.7366 161.2759  2.75247141229572
Epoch: 2026-06-18T08:52Z
TLE epoch observation values (Epoch: 2026-06-18T08:52:20.963Z)
Latitude
0.00009°
Longitude
12.3641°
Altitude
29,682.323 km
Speed
1.891 km/s
True Right ascension
03h 28m 15s
True Declination
0° 00' 00"
Sunlit
Object was in daylight at epoch
Visualization orbit readout
Latitude
Unknown
Longitude
Unknown
Altitude
Unknown
Speed
Unknown
Apparent Right ascension
Unknown
Apparent Declination
Unknown
Sunlit
N/A
Visualization observer readout
Local Sidereal Time
14:02:26
Azimuth
Unknown
Elevation
Unknown
Doppler factor
Unknown
Orbital elements
Apogee altitude
29,970.246 km
Perigee altitude
298.712 km
Semi-major axis
21,512.616 km
Eccentricity
0.68963
Inclination
7.188°
RAAN
52.076°
Arg. of periapsis
184.7366°
True anomaly
175.22608°
Mean anomaly
161.2759°
Eccentric anomaly
168.88987°
Mean motion
0.68787 °/min
Orbital period
523.36 mins
BSTAR
0.0011372
Loading maneuver chart data...
Computing Atmospheric mass density...
Loading historical data...
Loading historical data...
Loading historical data...
Loading historical data...
Loading historical data...
Loading historical data...
Loading historical data...
Other satellites on launch #5 in the year 2001 (2001-02-07 UTC)

Documentation

Showing up to 5 results
|